Probability
0 0 0 0 0 0 0 0 0 0 0 0 0 0 0 0 0 0 0 0 0 0 0 0 0 0 0 0 0 0 0 0 0 0 0 0 0 0 0 0 0 0 0
0 0 0 0 0 0 0 0 0 0 0 0 0 0 0 0 0 0 0 0 0 0 0 0 0 0 0 0 0 0 0 0 0 0 0 0 0 0 0 0 0 0 0
0 0 0 0 0 0 0 0 0 0 0 0 0 0 0 0 0 0 0 0 0 0 0 0 0 0 0 0 0 0 0 0 0 0 0 0 0 0 0 0 0 0 0
1 1 2 3 2 0 0 0 0 0 0 0 0 0 0 0 0 0 0 0 0 0 0 0 0 0 0 0 0 0 0 0 0 0 0 0 0 0 0 0 0 0 0
3 4 6 7 5 2 0 0 0 0 0 0 0 0 0 0 0 0 0 0 0 0 0 0 0 0 0 0 0 0 0 0 0 0 0 0 0 0 0 0 0 0 0
4 5 8 9 7 3 1 0 0 0 0 0 0 0 0 0 0 0 0 0 0 0 0 0 0 0 0 0 0 0 0 0 0 0 0 0 0 0 0 0 0 0 0
5 6 9 11 9 5 2 0 0 0 0 0 0 0 0 0 0 0 0 0 0 0 0 0 0 0 0 0 0 0 0 0 0 0 0 0 0 0 0 0 0 0 0
7 8 11 13 10 7 4 2 0 0 0 0 0 0 0 0 0 0 0 0 0 0 0 0 0 0 0 0 0 0 0 0 0 0 0 0 0 0 0 0 0 0 0
7 9 12 11 9 7 5 2 0 0 0 0 0 0 0 0 0 0 0 0 0 0 0 0 0 0 0 0 0 1 1 1 0 0 0 0 0 0 0 0 0 0 0
5 7 9 10 9 8 6 2 0 0 0 0 0 0 0 0 0 0 0 0 0 0 0 0 0 0 0 0 1 2 2 1 0 0 0 0 0 0 0 0 0 0 0
6 6 7 10 12 11 9 4 2 1 0 0 0 0 0 0 0 0 0 0 0 0 0 0 0 0 0 0 1 1 1 0 0 0 0 0 1 0 0 0 0 0 0
9 9 10 14 16 16 14 10 6 3 1 0 0 0 0 0 0 0 0 0 0 0 0 0 0 0 0 0 0 0 0 0 0 0 0 0 0 0 0 0 0 0 0
14 13 13 15 18 19 18 15 9 4 2 1 0 0 0 0 0 0 0 0 0 0 0 0 0 0 0 0 0 0 0 0 0 0 0 0 0 0 0 0 0 0 0
16 14 14 15 15 16 17 14 8 4 2 1 0 0 0 0 0 0 0 0 0 0 0 0 0 0 0 0 0 0 0 0 0 0 0 0 0 0 0 0 0 0 0
17 16 16 15 12 11 14 11 5 3 1 1 0 0 0 0 0 0 0 0 0 0 0 0 0 0 0 0 0 0 0 0 0 0 0 0 0 0 0 0 0 0 0
22 21 20 18 13 11 12 10 5 3 1 1 0 0 0 0 0 0 0 0 0 0 0 0 0 0 0 0 0 0 0 0 0 0 0 0 0 0 0 0 0 0 0
29 26 24 23 19 16 15 14 11 7 4 3 2 0 0 1 1 0 0 0 0 0 0 0 0 0 0 0 0 0 0 0 0 0 0 0 0 0 0 0 0 0 0
37 34 30 29 28 25 22 22 20 14 11 9 6 3 3 4 4 2 1 0 0 0 0 0 0 0 0 0 0 0 0 0 0 0 0 0 0 0 0 0 0 0 0
45 41 38 38 37 32 28 28 26 21 17 15 11 6 6 8 7 5 3 2 1 1 0 0 0 0 0 0 0 0 0 0 0 0 0 0 0 0 0 0 0 0 0
47 45 45 45 41 35 30 27 26 23 19 16 14 10 8 8 9 7 5 3 3 2 1 0 0 0 0 0 0 0 0 0 0 0 0 0 0 0 0 0 0 0 0
48 47 47 46 41 33 26 23 23 22 18 15 13 12 9 7 8 7 5 4 4 3 1 0 0 0 0 0 0 0 0 0 0 0 0 0 0 0 0 0 0 0 0
50 49 47 43 36 28 21 17 17 17 15 11 10 10 9 6 6 5 4 4 4 3 2 1 0 0 0 0 0 0 0 0 0 0 0 0 0 0 0 0 0 0 0
49 48 45 39 32 23 17 14 13 12 11 8 8 8 7 5 4 3 3 4 3 3 2 1 0 0 0 0 0 0 0 0 0 0 0 0 0 0 0 0 0 0 0
45 44 42 36 28 21 16 14 13 10 8 7 7 7 6 4 4 4 3 3 3 3 2 1 0 0 0 0 0 0 0 0 0 0 0 0 0 0 0 0 0 0 0
41 40 39 34 26 20 16 14 11 8 6 6 7 6 4 4 5 5 4 4 2 1 1 0 0 0 0 0 0 0 0 0 0 0 0 0 0 0 0 0 0 0 0
39 38 37 32 26 20 17 14 11 7 5 5 6 5 2 2 5 6 6 4 2 0 0 0 0 0 0 0 0 0 0 0 0 0 0 0 0 0 0 0 0 0 0
Wind_Speed
10 11 18 19 19 18 18 17 17 17 17 17 17 17 17 17 17 17 16 16 15 15 15 15 16 16 16 16 17 17 17 17 17 17 17 17 17 17 17 18 16 13 18
14 14 19 19 19 19 18 17 17 16 16 16 16 16 16 16 16 16 15 15 15 15 15 15 15 15 16 16 16 17 17 16 16 17 17 16 16 17 17 17 16 11 17
17 14 17 19 19 19 18 17 17 16 16 16 16 15 15 15 15 15 15 15 15 15 15 15 15 15 15 15 15 15 16 15 16 16 15 8 11 16 16 17 17 16 16
17 13 15 20 19 19 18 17 17 16 16 15 15 15 15 15 15 15 15 15 15 15 15 15 14 14 14 14 13 13 13 14 15 14 7 6 8 15 16 16 16 16 16
14 12 16 21 20 19 18 17 17 16 16 15 15 15 15 15 15 15 15 15 14 14 14 14 13 13 13 12 11 11 11 12 14 11 6 6 6 13 15 15 15 15 14
14 11 15 21 20 19 19 18 17 16 16 15 15 15 14 14 14 14 14 14 14 14 13 13 12 12 11 11 9 9 9 12 12 7 6 5 5 12 14 14 14 14 14
14 11 14 20 20 19 19 18 17 16 16 15 15 15 14 14 14 14 14 14 13 13 13 12 11 11 10 9 8 7 9 14 8 6 5 5 6 11 13 13 13 13 13
16 13 13 20 20 19 19 18 17 16 16 15 15 15 14 14 14 14 14 13 13 12 12 11 10 9 8 7 7 7 9 12 10 8 6 5 9 11 13 13 13 13 13
14 13 10 12 15 18 18 18 17 16 16 15 15 15 15 14 14 14 13 13 12 12 11 10 9 8 7 6 6 6 8 12 7 5 7 5 10 12 13 12 12 12 12
11 11 11 9 9 9 11 17 17 17 16 15 15 15 15 14 14 13 12 12 12 11 10 9 9 7 6 5 5 6 10 11 5 5 4 6 11 12 12 12 12 11 11
12 9 10 10 8 8 8 13 14 16 15 15 13 16 13 6 6 7 10 12 12 11 10 9 8 6 4 3 4 6 8 4 5 4 3 8 12 12 12 12 11 11 11
14 12 10 11 10 9 9 8 5 7 7 6 5 7 5 4 4 7 9 12 11 10 9 8 6 5 3 1 2 5 3 5 4 3 4 11 12 12 12 11 11 11 11
16 14 13 12 11 10 6 7 4 3 4 5 6 6 5 4 3 4 3 5 5 6 3 4 3 1 1 1 2 3 4 4 3 3 5 12 11 12 12 12 11 11 10
15 14 13 13 11 9 8 7 6 5 4 4 5 6 5 3 4 3 3 3 3 2 2 2 1 1 2 2 3 5 5 4 3 3 5 12 11 12 12 12 11 11 10
14 14 15 14 13 10 9 7 8 6 6 6 5 6 6 5 5 4 3 3 3 2 3 3 2 2 2 2 3 5 6 6 5 5 4 12 12 11 12 12 11 11 11
15 14 14 14 13 11 9 7 7 7 6 6 5 7 7 6 5 5 4 4 3 3 3 3 3 3 2 2 3 4 6 6 5 5 4 7 12 11 11 12 11 11 11
15 14 14 14 12 12 11 9 7 7 7 6 6 7 7 6 7 5 4 4 4 3 4 3 2 2 2 2 2 4 4 5 6 6 5 4 5 10 11 11 11 11 11
13 14 14 14 13 11 10 8 6 6 7 6 5 6 7 7 7 6 5 4 4 3 3 3 2 2 1 2 2 2 3 4 5 6 5 4 4 4 7 11 11 11 12
13 13 12 12 13 11 9 7 6 5 6 6 5 5 6 7 7 6 5 4 4 3 3 3 2 2 2 2 2 2 2 3 4 6 5 5 5 4 4 8 11 11 12
10 11 11 11 11 10 8 5 4 5 4 5 5 6 7 6 6 5 4 4 4 3 3 2 3 2 2 2 1 1 1 2 2 3 5 5 5 6 6 5 5 7 11
8 9 11 11 10 9 6 6 6 5 5 5 5 6 7 7 6 5 4 4 4 4 4 4 3 3 2 2 2 2 2 1 1 2 3 3 5 5 5 6 4 4 4
10 10 11 11 10 8 6 5 4 4 4 5 5 5 6 7 7 6 5 5 4 4 4 4 3 3 1 2 3 2 2 3 2 1 2 4 4 4 5 7 5 5 4
10 11 11 10 10 9 7 5 4 3 3 3 4 4 5 7 7 6 6 5 5 5 4 4 4 4 2 1 2 4 3 3 2 2 2 2 3 3 4 4 6 6 6
10 9 9 9 9 9 9 9 9 7 6 5 5 4 5 6 6 6 6 6 5 4 5 4 4 3 4 2 0 1 2 4 3 1 2 2 3 4 4 5 5 6 6
8 9 8 9 8 9 9 10 9 7 5 4 4 5 5 4 6 6 6 5 5 4 5 5 4 4 3 3 2 1 1 1 2 3 2 2 2 2 4 5 4 5 6
7 8 8 9 8 8 9 9 9 9 8 8 7 6 5 4 4 6 6 6 5 4 5 5 5 5 4 3 2 2 2 2 2 3 3 2 2 3 3 3 4 5 5
Wind_Direction
148 152 146 140 134 129 124 119 115 112 110 108 107 107 107 108 109 110 112 112 111 111 111 111 110 110 110 110 110 110 109 109 109 109 109 110 111 110 109 108 105 105 107
147 150 146 141 137 133 128 125 121 118 116 114 113 112 111 112 112 113 114 114 114 113 112 112 112 112 111 112 113 113 111 110 109 109 107 108 110 110 110 109 108 112 111
142 146 145 142 139 136 133 130 128 125 122 120 118 117 116 116 116 116 116 116 116 115 114 114 114 114 113 114 115 115 114 112 109 106 103 99 106 110 111 111 112 112 111
141 143 144 143 141 139 137 135 133 130 128 126 124 122 122 121 121 120 119 119 119 118 117 117 117 116 116 115 116 118 119 116 113 108 98 99 107 113 113 113 113 113 112
138 140 146 144 143 142 141 139 138 136 135 132 130 129 127 125 124 123 123 122 122 121 120 121 120 119 118 117 116 118 121 121 118 109 98 93 102 117 117 117 117 116 116
137 140 147 145 145 144 144 143 143 141 138 136 135 133 131 129 128 127 126 125 125 125 124 124 123 121 119 116 114 114 120 124 115 109 106 104 108 121 121 121 119 119 119
139 143 147 147 147 147 147 147 145 144 142 141 139 137 135 134 133 130 129 129 129 129 129 128 126 123 121 116 110 106 114 125 117 115 113 110 118 123 125 125 124 123 123
143 144 148 150 150 150 150 150 149 148 147 145 142 141 138 137 135 133 133 133 133 133 133 132 130 126 119 110 102 98 112 129 127 130 125 123 129 129 129 129 130 129 128
144 145 146 151 153 154 153 152 152 151 150 149 146 144 142 140 139 138 137 138 138 137 137 137 133 129 121 110 102 100 115 129 125 133 138 134 137 136 135 134 134 134 133
146 149 148 148 149 152 154 156 156 154 154 153 151 150 148 146 145 143 142 144 145 145 144 143 140 136 126 114 105 101 112 124 123 125 130 147 146 142 141 140 140 139 138
153 156 153 150 150 149 153 161 158 158 159 157 156 156 150 141 140 143 150 152 153 153 153 153 149 144 132 115 111 108 109 125 128 130 141 154 153 150 147 147 146 145 145
163 164 161 157 157 158 163 154 155 158 157 153 153 150 141 142 153 155 164 161 161 161 161 164 162 152 135 110 103 105 111 127 126 139 159 161 160 156 154 154 154 153 152
166 167 165 164 165 167 159 155 158 150 152 155 157 154 151 152 158 153 157 162 163 164 162 170 167 159 160 154 129 120 133 134 142 159 171 168 165 164 162 162 161 161 160
167 173 168 168 170 172 160 163 164 162 165 170 173 168 159 158 157 161 165 165 164 162 172 173 180 208 206 185 152 143 148 149 154 158 179 175 172 171 170 169 169 169 168
171 175 174 172 173 172 164 172 171 171 175 176 175 176 168 164 166 168 173 177 180 173 179 188 196 195 186 169 157 150 159 160 161 169 177 181 178 178 177 177 177 178 177
176 178 174 174 175 171 170 175 172 174 173 174 176 177 171 167 167 168 173 181 186 183 183 182 185 175 168 150 147 151 156 160 169 174 175 186 185 183 183 182 182 183 184
175 174 174 175 174 172 172 177 174 174 171 173 175 173 169 166 168 167 172 180 186 178 170 160 158 150 152 140 141 149 155 165 170 175 178 181 186 192 189 188 188 190 191
167 169 174 176 173 171 171 170 165 168 166 170 167 168 168 167 166 165 171 181 178 163 154 152 145 141 144 136 147 157 159 168 172 179 183 182 183 193 199 197 195 195 198
170 168 171 171 170 168 165 158 151 154 162 165 161 163 167 164 164 163 169 174 164 152 154 166 143 144 145 155 168 160 160 167 177 181 186 190 192 192 194 205 204 201 205
169 166 167 166 165 159 152 144 139 149 162 161 162 165 165 167 165 157 161 166 153 144 151 150 142 141 145 160 140 121 152 178 182 182 189 191 197 201 199 203 204 210 213
163 165 165 163 164 157 155 158 157 166 169 164 169 171 170 170 164 155 163 162 154 155 163 156 140 135 130 127 91 44 1 354 199 198 190 186 201 205 195 200 199 201 213
170 169 165 165 162 161 165 162 154 154 165 165 170 176 176 171 166 167 164 168 163 153 153 154 140 130 130 137 128 105 31 350 326 233 206 198 201 194 197 202 198 201 206
170 171 169 164 163 163 158 142 136 128 126 153 172 178 183 175 168 163 169 166 166 161 165 167 153 142 152 163 144 141 147 208 283 314 260 214 193 190 201 197 203 205 207
176 168 161 162 166 168 163 164 167 171 175 181 178 175 177 175 169 168 169 168 166 162 162 172 161 148 142 154 152 170 165 158 150 264 313 280 223 205 204 204 205 208 207
175 168 166 165 170 172 173 175 175 176 174 162 164 167 174 176 173 173 169 166 164 160 165 166 153 152 150 155 163 160 126 115 130 144 223 281 288 247 218 210 201 205 204
178 170 166 170 177 177 177 178 179 174 169 167 173 176 179 175 178 175 172 169 168 166 166 169 167 163 162 156 154 155 156 161 181 163 187 225 244 266 245 225 208 207 205